www.pogodaiklimat.ru

Погода и климат >> Архив погоды >> Канада >> Британская Колумбия >> Ванкувер аэропорт


АРХИВ ПОГОДЫ в Ванкувер аэропорту

Время (UTC), дата Ветер
(напр.,м/с)
 
Видим.   Явления Облачность Т
(С)
Тd
(С)
f
(%)
Тe
(С)
Тes
(С)
Комфортность P
(гПа)
Po
(гПа)
Тmin
(С)
Tmax
(С)
R
(мм)
R24
(мм)
S
(см)
03 16.05 З 6 45 км 10/10 1000 м
[]
+14.7 +9.6 71 +13 +13 по сезону 1003.0 1002.5
06 16.05 С 4 24 км слаб. дождь 10/4 1000 м
[Sc Ac As]
+13.0 +10.6 85 +11 +11 по сезону 1004.2 1003.7 +10.6 +17.6 2 21
09 16.05 СВ 2 30 км 10/10 1500 м
[]
+13.7 +11.1 84 +13 +13 тепло 1002.6 1002.1
12 16.05 С 2 45 км {дождь} 10/1 1500 м
[Sc Ac As Cs]
+11.9 +11.2 95 +11 +11 тепло 1001.2 1000.7 +11.9 +17.6 0.2
15 16.05 З 4 45 км 10/10 200 м
[]
+14.2 +12.7 91 +13 +13 тепло 1001.1 1000.6
18 16.05 З 5 45 км 10/1 200 м
[Frnb Ac As Cs]
+15.2 +13.0 87 +14 +17 по сезону 1001.0 1000.5 +11.7 +16.0
21 16.05 З 7 45 км 10/10 600 м
[]
+17.3 +13.8 80 +16 +16 тепло 1000.6 1000.1
00 17.05 З 4 45 км 10/1 1500 м
[Cu hum Ac As Cs]
+16.2 +12.4 78 +15 +18 по сезону 1000.6 1000.1 +11.7 +17.6
03 17.05 Ю 2 30 км 10/0
[]
+15.4 +11.8 79 +16 +16 тепло 1001.4 1000.9
06 17.05 ЮВ 3 30 км 10/9 1000 м
[Sc Ac As]
+15.0 +11.4 79 +14 +14 тепло 1002.1 1001.6 +11.7 +17.6 21
09 17.05 штиль 0 24 км 10/10 600 м
[]
+13.7 +11.7 88 +13 +13 тепло 1002.4 1001.9
12 17.05 ЮЗ 5 30 км в посл. час дождь 10/10 600 м
[Sc]
+13.0 +10.8 86 +11 +11 тепло 1003.8 1003.3 +12.9 +17.6
15 17.05 ЮЗ 5 30 км 10/10 600 м
[]
+13.6 +9.1 74 +12 +12 по сезону 1006.3 1005.8
18 17.05 ЮЗ 5 24 км осадки на расстоянии 10/9 100 м
[Cu Sc Ac As]
+13.7 +8.5 71 +12 +12 по сезону 1009.6 1009.1 +12.2 +14.9
21 17.05 ЮЗ 5 45 км 9/9 1000 м
[]
+15.6 +7.2 57 +14 +15 по сезону 1011.8 1011.3
00 18.05 ЮЗ 3 45 км 5/1 1000 м
[Cu hum Ac As Cs]
+16.6 +3.7 42 +17 +22 тепло 1012.9 1012.4 +12.2 +16.9
03 18.05 ЮВ 4 45 км 3/3 1500 м
[]
+13.7 +7.4 66 +12 +13 по сезону 1013.6 1013.1
06 18.05 СВ 3 45 км 9/0 2000 м
[Ac As]
+12.5 +7.5 72 +11 +11 по сезону 1013.6 1013.1 +11.1 +17.0 210
09 18.05 В 5 45 км 10/10 600 м
[]
+12.1 +7.0 71 +10 +10 по сезону 1013.2 1012.7
12 18.05 В 4 45 км 10/10 1000 м
[Sc]
+12.2 +7.2 71 +10 +10 по сезону 1012.5 1012.0 +11.1 +17.0
15 18.05 В 4 45 км 8/8 600 м
[]
+13.5 +7.1 65 +12 +12 по сезону 1011.9 1011.4
18 18.05 В 3 45 км 9/1 1000 м
[Cu Sc Cs]
+17.4 +8.6 56 +17 +26 тепло 1010.3 1009.8 +11.1 +17.4
21 18.05 З 5 45 км 4/4 1500 м
[]
+17.1 +9.7 62 +17 +22 тепло 1008.5 1008.0
00 19.05 СЗ 5 45 км 5/1 1500 м
[Cu hum Cs]
+17.2 +9.3 60 +17 +20 тепло 1006.5 1006.0 +11.4 +18.2
03 19.05 СЗ 4 45 км 9/0
[]
+15.0 +9.8 71 +14 +14 по сезону 1004.6 1004.1
06 19.05 СЗ 5 45 км 9/0
[As trans Cs]
+14.0 +10.3 78 +12 +12 по сезону 1004.3 1003.8 +11.4 +18.2
09 19.05 С 3 45 км 9/0
[]
+12.6 +9.9 84 +11 +11 по сезону 1005.0 1004.5
12 19.05 С 1 45 км 4/0
[Ac As Cs]
+10.0 +7.7 86 +10 +10 по сезону 1005.6 1005.1 +10.0 +18.2
15 19.05 СЗ 2 45 км 8/8 1500 м
[]
+15.5 +9.7 68 +16 +16 тепло 1006.8 1006.3
18 19.05 З 4 45 км 1/1 1500 м
[Cu hum Ac As Cs]
+17.6 +11.7 68 +17 +26 тепло 1006.8 1006.3 +9.3 +17.8
21 19.05 З 3 45 км 10/10 1500 м
[]
+19.4 +12.9 66 +21 +21 комфорт 1006.4 1005.9
00 20.05 З 3 45 км 9/1 1500 м
[Cu hum Ac trans Cs]
+20.0 +11.6 58 +22 +26 комфорт 1005.6 1005.1 +9.3 +21.1
03 20.05 С 1 45 км 9/0
[]
+16.7 +10.4 66 +18 +19 тепло 1005.3 1004.8
06 20.05 В 4 45 км 4/0
[Ac As Ci fib]
+14.6 +9.8 73 +14 +14 тепло 1006.1 1005.6 +9.3 +21.1
09 20.05 ЮВ 5 45 км 9/0
[]
+13.2 +9.2 77 +11 +11 по сезону 1006.2 1005.7
12 20.05 В 5 45 км 9/1 300 м
[Sc Ac As]
+12.4 +9.1 80 +10 +10 по сезону 1006.5 1006.0 +12.2 +21.1
15 20.05 В 7 45 км 10/10 300 м
[]
+12.7 +9.4 80 +10 +10 по сезону 1007.0 1006.5
18 20.05 В 6 30 км слаб. дождь 10/10 300 м
[Sc Ac As]
+13.2 +11.0 87 +11 +11 по сезону 1007.3 1006.8 +12.1 +14.5 1
21 20.05 В 5 12 км 10/10 200 м
[]
+12.4 +10.7 89 +10 +10 прохладно 1007.8 1007.3
00 21.05 ЮВ 2 19 км слаб. дождь 10/9 200 м
[Cu Sc Ac As]
+12.5 +11.0 91 +11 +12 холодно 1007.9 1007.4 +12.1 +13.6 4
03 21.05 В 2 24 км 10/10 100 м
[]
+12.2 +11.0 92 +11 +11 прохладно 1007.4 1006.9
06 21.05 ЮВ 3 16 км в посл. час дождь 10/4 100 м
[Cu Sc Ac As]
+11.0 +10.1 94 +9 +9 прохладно 1007.4 1006.9 +10.9 +14.5 2 200
09 21.05 Ю 2 16 км 10/10 100 м
[]
+10.7 +9.8 94 +10 +10 по сезону 1007.1 1006.6
12 21.05 З 1 19 км слаб. дождь 10/8 100 м
[Cu Sc Ac As]
+10.2 +9.3 94 +10 +10 по сезону 1006.4 1005.9 +10.0 +14.5 2
15 21.05 З 4 24 км 9/9 200 м
[]
+12.4 +11.3 93 +10 +10 по сезону 1006.6 1006.1
18 21.05 З 6 24 км в посл. час ливневой дождь 10/6 100 м
[Cu Sc Ac As]
+13.2 +11.6 90 +11 +11 прохладно 1007.5 1007.0 +10.0 +14.0 0.0
21 21.05 З 8 30 км 5/5 200 м
[]
+17.1 +12.5 74 +16 +18 по сезону 1007.5 1007.0
00 22.05 З 6 45 км осадки на расстоянии 6/1 1500 м
[Cu med, cong Ac As Cs]
+16.2 +12.4 78 +15 +17 по сезону 1008.0 1007.5 +10.0 +18.4
03 22.05 З 4 45 км 8/8 1500 м
[]
+15.1 +12.1 82 +14 +14 по сезону 1009.1 1008.6
06 22.05 В 3 30 км 4/0
[Ac As]
+13.6 +11.3 86 +13 +13 по сезону 1011.3 1010.8 +10.0 +18.4 201
09 22.05 СЗ 2 30 км ясно +10.1 +9.3 95 +8 +8 по сезону 1012.9 1012.4
12 22.05 ЮВ 1 45 км местами туман поземный 4/0
[Ac As Cs]
+10.7 +10.0 95 +10 +10 по сезону 1014.4 1013.9 +9.4 +18.4
15 22.05 СЗ 3 45 км 4/4 1500 м
[]
+13.8 +12.3 91 +13 +14 по сезону 1015.5 1015.0
18 22.05 З 7 45 км ясно +16.6 +13.5 82 +15 +20 по сезону 1015.6 1015.1 +8.7 +16.6
21 22.05 З 4 45 км ясно +18.7 +13.7 73 +19 +30 тепло 1015.3 1014.8
00 23.05 З 3 45 км 1/1 1500 м
[Cu hum Ac trans]
+19.6 +12.7 64 +21 +27 комфорт 1014.6 1014.1 +8.7 +19.9

 

Местоположение метеостанции Ванкувер аэропорт (Британская Колумбия, Канада): широта 49.20 долгота -123.10 высота над уровнем моря 4 м.

В архиве по умолчанию представлена погода в Ванкувер аэропорту за последнюю неделю. Архивные данные за месяц целиком и за предыдущие месяцы, начиная с января 2011 года, Вы можете получить, выбрав интересующий диапазон дат из раскрывающегося списка и нажав кнопку "Ввод!".


*Определитесь, кто Вы:
робот инопланетянин человек

Внимание! Время в таблицах - всемирное. Для получения местного времени необходимо прибавить поправку, которая равна -8 ч.

Смотрите также архив погоды в соседних городах и на ближайших метеорологических станциях:

Погода в Ричмонде (Британская Колумбия, Канада) (3 км)
Погода в Ванкувер Хиллкрест (Британская Колумбия, Канада) (3 км)
Погода в Ванкувере Си Айленд (Британская Колумбия, Канада) (7 км)
Погода в Ванкувере (Британская Колумбия, Канада) (11 км)
Погода на Западе Ванкувер (Британская Колумбия, Канада) (14 км)
Погода в Пойнт Аткинсон (Британская Колумбия, Канада) (17 км)
Погода на Сэнд Хеадс (Британская Колумбия, Канада) (18 км)
Погода в Слейв Лейк (Альберта, Канада) (21 км)
Погода в Форт-МакМеррее 2 (Альберта, Канада) (23 км)
Погода на Пэм Рок (Британская Колумбия, Канада) (32 км)

Пояснения к столбцам:

Ветер - указаны скорость ветра в м/с - средняя за 10 мин, порывы в срок и между сроками (в фигурных скобках) и направление, откуда дует ветер: С - северный, СВ - северо-восточный, В - восточный, ЮВ - юго-восточный, Ю - южный, ЮЗ - юго-западный, З - западный, СЗ - северо-западный.
Видимость - горизонтальная дальность видимости в метрах или километрах. При видимости от 1 до 10 км при отсутствии осадков обычно наблюдается дымка, при ухудшении видимости до 1 км и менее - туман. В сухую погоду видимость может ухудшаться дымом, пылью или мглою.
Явления - указаны атмосферные явления, наблюдавшиеся в срок или в последний час перед сроком; фигурными скобками обозначены явления, наблюдавшиеся между сроками (за 1-3 часа до срока); квадратными скобками обозначены град или гололедные отложения с указанием их диаметра в мм.
Облачность - указаны через наклонную черту общая и нижняя облачность в баллах и высота нижней границы облаков в метрах; квадратными скобками обозначены формы облаков: Ci - перистые, Cs - перисто-слоистые, Cc - перисто-кучевые, Ac - высококучевые, As - высокослоистые, Sc - слоисто-кучевые, Ns - слоисто-дождевые, Cu - кучевые, Cb - кучево-дождевые. Подробнее классификацию облаков см. в Атласе облаков (PDF).
T - Температура воздуха - температура, измеренная на высоте 2 м над землей.
Td - Температура точки росы - температура, при понижении до которой содержащийся в воздухе водяной пар достигнет насыщения.
f - Относительная влажность воздуха - влажноcть воздуха, измеренная на высоте 2 м над землей.
Te - Эффективная температура - температура, которую ощущает одетый по сезону человек в тени. Характеристика душности погоды. При расчете учитывается влияние влажности воздуха и скорости ветра на теплоощущения человека.
Tes - Эффективная температура на солнце - температура, которую ощущает человек, с поправкой на солнечный нагрев. Характеристика знойности погоды. Зависит от высоты солнца над горизонтом, облачности и скорости ветра. Ночью, в пасмурную погоду, а также при ветре 12 м/с и более поправка равна нулю.
P - Атмосферное давление - приведенное к уровню моря атмосферное давление.
Po - Атмосферное давление - измеренное на уровне метеостанции атмосферное давление.
Tmin - Минимальная температура - минимум температуры воздуха на высоте 2 м над землей.
Tmax - Максимальная температура - максимум температуры воздуха на высоте 2 м над землей.
R - Количество осадков - Количество выпавших осадков за период времени, мм. При наведении курсора мыши на число - период времени, за который выпало указанное количество осадков.
R24 - Количество осадков - Количество выпавших осадков за 24 часа, мм.
S - Снежный покров - Высота снежного покрова, см. При наведении курсора мыши на число - состояние снежного покрова и степень покрытия местности в баллах.